N5UKZ-WX Weather Reports


time (UTC)temp
F
wind
direction
speed
knots
gust
knots
rain 1hr
in
rain 24hr
in
rain mn
in
humidity
%
barometer
mb
20260510093844 67 27 0.0 0.0 0.00 0.00 0.00 100 1012.9
20260510092344 68 27 0.0 0.0 0.00 0.00 0.00 100 1012.9
20260510090844 67 27 0.0 0.0 0.00 0.00 0.00 100 1012.9
20260510085343 67 27 0.0 0.0 0.00 0.00 0.00 100 1012.9
20260510083843 67 27 0.0 0.0 0.00 0.00 0.00 100 1012.9
20260510082343 67 27 0.0 0.0 0.00 0.00 0.00 100 1012.9
20260510080843 69 27 0.0 0.9 0.00 0.00 0.00 100 1012.6
20260510075342 68 18 0.9 3.5 0.00 0.00 0.00 100 1012.6
20260510073842 68 18 0.0 0.0 0.00 0.00 0.00 100 1012.9
20260510072342 68 18 0.0 2.6 0.00 0.00 0.00 100 1012.9
20260510070842 68 27 0.0 0.0 0.00 0.00 0.00 100 1012.6
20260510065342 68 27 1.7 4.3 0.00 0.00 0.00 100 1012.6
20260510063841 68 23 0.0 1.7 0.00 0.00 0.00 100 1012.6
20260510062341 69 59 0.0 1.7 0.00 0.00 0.00 100 1012.6
20260510060841 67 21 0.9 2.6 0.00 0.00 0.00 100 1012.6
20260510055341 69 63 0.9 3.5 0.00 0.00 0.00 100 1012.6
20260510053841 67 8 0.0 4.3 0.00 0.00 0.00 100 1012.9
20260510052341 68 23 0.0 1.7 0.00 0.00 0.00 100 1012.6
20260510050840 67 332 0.0 1.7 0.00 0.00 0.00 100 1012.6
20260510045340 67 323 0.0 0.9 0.00 0.00 0.00 100 1012.9
20260510043840 68 4 0.0 3.5 0.00 0.00 0.00 100 1012.9
20260510042340 67 283 0.0 3.5 0.00 0.00 0.00 100 1012.9
20260510040839 67 329 0.0 1.7 0.00 0.00 0.00 100 1012.6
20260510035339 67 84 0.0 1.7 0.00 0.00 0.00 100 1012.2
20260510033839 68 58 0.0 3.5 0.00 0.00 0.00 100 1012.2
20260510032339 67 87 0.0 1.7 0.00 0.00 0.00 100 1012.2
20260510030839 67 118 0.0 2.6 0.00 0.00 0.00 100 1012.2
20260510025339 67 76 1.7 3.5 0.00 0.00 0.00 100 1012.2
20260510023839 67 264 0.0 1.7 0.00 0.00 0.00 100 1012.9
20260510022338 68 314 3.5 5.2 0.00 0.00 0.00 100 1013.2
20260510020838 66 186 0.0 6.1 0.00 0.00 0.00 100 1012.2
20260510015338 66 104 0.9 4.3 0.00 0.00 0.00 100 1012.2
20260510013838 68 63 1.7 4.3 0.00 0.00 0.00 100 1012.9
20260510012338 67 60 0.0 3.5 0.00 0.00 0.00 100 1012.9
20260510010837 67 271 0.0 2.6 0.00 0.00 0.00 100 1013.2
20260510005337 66 215 0.0 0.9 0.00 0.00 0.00 100 1013.6
20260510003837 67 215 0.0 0.9 0.00 0.00 0.00 100 1012.9
20260510002337 66 335 0.0 0.0 0.00 0.00 0.00 100 1012.9
20260510000837 66 335 0.0 1.7 0.00 0.00 0.00 100 1012.6
20260509235336 68 295 0.9 1.7 0.00 0.00 0.00 100 1011.9
20260509233836 66 153 0.0 0.0 0.00 0.00 0.00 100 1011.6
20260509232336 66 101 2.6 7.0 0.00 0.00 0.00 100 1010.9
20260509230836 66 89 1.7 7.8 0.00 0.00 0.00 100 1011.2
20260509225335 66 66 1.7 5.2 0.00 0.00 0.00 100 1011.9
20260509223835 66 41 0.0 6.1 0.00 0.00 0.00 100 1011.9
20260509222335 66 111 1.7 4.3 0.00 0.00 0.00 100 1011.9
20260509220835 66 240 0.0 0.0 0.00 0.00 0.00 100 1012.6
20260509215335 66 17 0.0 2.6 0.00 0.00 0.00 100 1012.2
20260509213834 68 32 0.0 0.9 0.00 0.00 0.00 100 1011.9
20260509212334 67 148 0.0 3.5 0.00 0.00 0.00 100 1011.9
20260509210834 67 90 0.9 5.2 0.00 0.00 0.00 100 1012.2
20260509205334 68 84 0.0 0.9 0.00 0.00 0.00 100 1012.2
20260509203834 67 160 0.0 1.7 0.00 0.00 0.00 100 1012.9
20260509202333 68 62 0.0 0.0 0.00 0.00 0.00 100 1012.9
20260509200833 68 63 0.9 2.6 0.00 0.00 0.00 100 1011.9
20260509195333 67 65 2.6 7.0 0.00 0.00 0.00 100 1011.9
20260509193833 68 62 0.9 6.1 0.00 0.00 0.00 100 1012.6
20260509192333 68 218 0.9 5.2 0.00 0.00 0.00 100 1012.6
20260509190832 68 0 0.0 7.0 0.00 0.00 0.00 100 1012.9
20260509185332 69 138 0.0 4.3 0.00 0.00 0.00 100 1013.2
20260509183832 67 89 0.9 6.1 0.00 0.00 0.00 100 1012.9
20260509182332 68 97 0.0 3.5 0.00 0.00 0.00 100 1012.9
20260509180832 68 66 0.0 7.0 0.00 0.00 0.00 100 1012.6
20260509175331 68 98 2.6 7.0 0.00 0.00 0.00 100 1012.2
20260509173831 69 97 3.5 7.8 0.00 0.00 0.00 100 1011.9
20260509172331 68 80 0.9 5.2 0.00 0.00 0.00 100 1011.9
20260509170831 67 68 0.9 7.0 0.00 0.00 0.00 100 1012.2
20260509165331 68 75 0.0 5.2 0.00 0.00 0.00 100 1012.2
20260509163830 68 73 0.0 3.5 0.00 0.00 0.00 100 1012.9
20260509162330 66 100 0.0 3.5 0.00 0.00 0.00 100 1012.2
20260509160830 67 60 0.0 7.0 0.00 0.00 0.00 100 1012.6
20260509155330 66 94 0.0 3.5 0.00 0.00 0.00 100 1012.6
20260509153830 66 79 0.0 4.3 0.00 0.00 0.00 100 1012.9
20260509152330 67 59 0.0 4.3 0.00 0.00 0.00 100 1012.6
20260509150829 66 21 0.9 5.2 0.00 0.00 0.00 100 1012.2
20260509145329 66 113 1.7 5.2 0.00 0.00 0.00 100 1012.6
20260509143829 65 84 0.0 4.3 0.00 0.00 0.00 100 1011.9
20260509142329 66 14 0.9 2.6 0.00 0.00 0.00 100 1011.9
20260509140828 65 101 0.0 6.1 0.00 0.00 0.00 100 1012.2
20260509135328 65 59 0.9 7.0 0.00 0.00 0.00 100 1011.9
20260509133828 65 111 3.5 6.1 0.00 0.00 0.00 100 1011.9
20260509132328 65 264 0.0 0.9 0.00 0.00 0.00 100 1012.2
20260509130827 65 21 0.0 6.1 0.00 0.00 0.00 100 1011.9
20260509125327 66 84 4.3 7.0 0.00 0.00 0.00 100 1011.9
20260509123827 66 69 1.7 4.3 0.00 0.00 0.00 100 1012.2
20260509122327 65 295 0.0 6.1 0.00 0.00 0.00 100 1011.9
20260509120827 66 287 3.5 13.0 0.00 0.00 0.00 100 1012.2
20260509115327 69 311 4.3 19.1 0.00 0.00 0.00 100 1011.9
20260509113827 70 319 0.9 2.6 0.00 0.00 0.00 100 1010.9
20260509112326 69 108 0.0 0.9 0.00 0.00 0.00 100 1010.2
20260509110826 69 149 0.0 3.5 0.00 0.00 0.00 100 1009.5
20260509105326 71 55 0.0 2.6 0.00 0.00 0.00 100 1008.8
20260509103826 70 107 0.0 0.9 0.00 0.00 0.00 100 1009.2
20260509102326 70 107 0.0 2.6 0.00 0.00 0.00 100 1009.5
20260509100825 69 37 0.0 0.9 0.00 0.00 0.00 100 1009.5
20260509095325 68 68 0.0 2.6 0.00 0.00 0.00 100 1009.2